| time (UTC) | temp C | wind direction | speed KPH | gust KPH | rain 1hr cm | rain 24hr cm | rain mn cm | humidity % | barometer mb |
| 20260507080541 | 12 | 136 | 3.2 | 12.9 | 0.00 | 0.00 | 0.00 | 79 | 1015.8 |
| 20260507075541 | 11 | 182 | 0.0 | 6.4 | 0.00 | 0.00 | 0.00 | 86 | 1015.6 |
| 20260507075041 | 11 | 0 | 0.0 | 6.4 | 0.00 | 0.00 | 0.00 | 88 | 1015.7 |
| 20260507074549 | 10 | 0 | 0.0 | 8.0 | 0.00 | 0.00 | 0.00 | 88 | 1015.7 |
| 20260507074040 | 10 | 149 | 1.6 | 8.0 | 0.00 | 0.00 | 0.00 | 89 | 1015.7 |
| 20260507073544 | 10 | 0 | 0.0 | 4.8 | 0.00 | 0.00 | 0.00 | 90 | 1015.7 |
| 20260507073043 | 10 | 0 | 0.0 | 3.2 | 0.00 | 0.00 | 0.00 | 90 | 1015.7 |
| 20260507072540 | 10 | 118 | 0.0 | 3.2 | 0.00 | 0.00 | 0.00 | 91 | 1015.6 |
| 20260507072040 | 10 | 0 | 0.0 | 3.2 | 0.00 | 0.00 | 0.00 | 91 | 1015.5 |
| 20260507071542 | 10 | 0 | 0.0 | 4.8 | 0.00 | 0.00 | 0.00 | 92 | 1015.6 |
| 20260507071043 | 9 | 0 | 0.0 | 4.8 | 0.00 | 0.00 | 0.00 | 92 | 1015.7 |
| 20260507070541 | 9 | 0 | 0.0 | 0.0 | 0.00 | 0.00 | 0.00 | 92 | 1015.7 |
| 20260507065542 | 9 | 0 | 0.0 | 3.2 | 0.00 | 0.00 | 0.00 | 92 | 1015.6 |
| 20260507065040 | 8 | 0 | 0.0 | 3.2 | 0.00 | 0.00 | 0.00 | 93 | 1015.6 |
| 20260507064621 | 8 | 0 | 0.0 | 3.2 | 0.00 | 0.00 | 0.00 | 93 | 1015.6 |
| 20260507064041 | 8 | 0 | 0.0 | 3.2 | 0.00 | 0.00 | 0.00 | 93 | 1015.5 |
| 20260507063541 | 8 | 0 | 0.0 | 3.2 | 0.00 | 0.00 | 0.00 | 93 | 1015.5 |
| 20260507063051 | 8 | 0 | 0.0 | 0.0 | 0.00 | 0.00 | 0.00 | 93 | 1015.5 |
| 20260507062541 | 8 | 0 | 0.0 | 0.0 | 0.00 | 0.00 | 0.00 | 93 | 1015.5 |
| 20260507062042 | 8 | 0 | 0.0 | 0.0 | 0.00 | 0.00 | 0.00 | 93 | 1015.4 |
| 20260507061545 | 7 | 0 | 0.0 | 0.0 | 0.00 | 0.00 | 0.00 | 93 | 1015.4 |
| 20260507061042 | 7 | 0 | 0.0 | 0.0 | 0.00 | 0.00 | 0.00 | 93 | 1015.5 |
| 20260507060541 | 7 | 0 | 0.0 | 0.0 | 0.00 | 0.00 | 0.00 | 93 | 1015.4 |
| 20260507060107 | 7 | 0 | 0.0 | 0.0 | 0.00 | 0.00 | 0.00 | 93 | 1015.3 |
| 20260507055543 | 6 | 0 | 0.0 | 0.0 | 0.00 | 0.00 | 0.00 | 92 | 1015.2 |
| 20260507055041 | 6 | 0 | 0.0 | 0.0 | 0.00 | 0.00 | 0.00 | 92 | 1015.3 |
| 20260507054557 | 6 | 0 | 0.0 | 0.0 | 0.00 | 0.00 | 0.00 | 92 | 1015.3 |
| 20260507054041 | 6 | 0 | 0.0 | 0.0 | 0.00 | 0.00 | 0.00 | 92 | 1015.2 |
| 20260507053541 | 6 | 0 | 0.0 | 0.0 | 0.00 | 0.00 | 0.00 | 92 | 1015.1 |
| 20260507053048 | 6 | 0 | 0.0 | 0.0 | 0.00 | 0.00 | 0.00 | 92 | 1015.2 |
| 20260507052540 | 5 | 0 | 0.0 | 0.0 | 0.00 | 0.00 | 0.00 | 92 | 1015.1 |
| 20260507052041 | 5 | 0 | 0.0 | 0.0 | 0.00 | 0.00 | 0.00 | 92 | 1015.1 |
| 20260507051603 | 5 | 0 | 0.0 | 0.0 | 0.00 | 0.00 | 0.00 | 92 | 1015.1 |
| 20260507051042 | 5 | 0 | 0.0 | 0.0 | 0.00 | 0.00 | 0.00 | 92 | 1015.0 |
| 20260507050541 | 5 | 0 | 0.0 | 0.0 | 0.00 | 0.00 | 0.00 | 92 | 1015.0 |
| 20260507050052 | 5 | 0 | 0.0 | 0.0 | 0.00 | 0.00 | 0.00 | 92 | 1015.0 |
| 20260507045540 | 5 | 0 | 0.0 | 0.0 | 0.00 | 0.00 | 0.00 | 92 | 1015.0 |
| 20260507045040 | 5 | 0 | 0.0 | 0.0 | 0.00 | 0.00 | 0.00 | 91 | 1015.1 |
| 20260507044556 | 5 | 0 | 0.0 | 0.0 | 0.00 | 0.00 | 0.00 | 91 | 1015.0 |
| 20260507044043 | 5 | 0 | 0.0 | 0.0 | 0.00 | 0.00 | 0.00 | 91 | 1015.0 |
| 20260507043541 | 5 | 0 | 0.0 | 0.0 | 0.00 | 0.00 | 0.00 | 91 | 1015.0 |
| 20260507043055 | 5 | 0 | 0.0 | 0.0 | 0.00 | 0.00 | 0.00 | 91 | 1015.0 |
| 20260507042541 | 5 | 0 | 0.0 | 0.0 | 0.00 | 0.00 | 0.00 | 91 | 1015.0 |
| 20260507042040 | 5 | 0 | 0.0 | 0.0 | 0.00 | 0.00 | 0.00 | 91 | 1015.0 |
| 20260507041543 | 5 | 0 | 0.0 | 1.6 | 0.00 | 0.00 | 0.00 | 91 | 1015.0 |
| 20260507041041 | 5 | 0 | 0.0 | 1.6 | 0.00 | 0.00 | 0.00 | 91 | 1015.1 |
| 20260507040541 | 5 | 0 | 0.0 | 0.0 | 0.00 | 0.00 | 0.00 | 91 | 1015.0 |
| 20260507040051 | 5 | 0 | 0.0 | 1.6 | 0.00 | 0.00 | 0.00 | 91 | 1015.0 |
| 20260507035540 | 5 | 0 | 0.0 | 1.6 | 0.00 | 0.00 | 0.00 | 90 | 1015.0 |
| 20260507035040 | 5 | 0 | 0.0 | 0.0 | 0.00 | 0.00 | 0.00 | 90 | 1015.0 |
| 20260507034547 | 5 | 0 | 0.0 | 0.0 | 0.00 | 0.00 | 0.00 | 91 | 1015.0 |
| 20260507034041 | 5 | 0 | 0.0 | 0.0 | 0.00 | 0.00 | 0.00 | 91 | 1015.0 |
| 20260507033541 | 5 | 0 | 0.0 | 0.0 | 0.00 | 0.00 | 0.00 | 91 | 1014.9 |
| 20260507033048 | 5 | 0 | 0.0 | 0.0 | 0.00 | 0.00 | 0.00 | 91 | 1014.9 |
| 20260507032541 | 5 | 0 | 0.0 | 0.0 | 0.00 | 0.00 | 0.00 | 91 | 1015.0 |
| 20260507032044 | 5 | 0 | 0.0 | 0.0 | 0.00 | 0.00 | 0.00 | 91 | 1015.0 |
| 20260507031547 | 5 | 0 | 0.0 | 0.0 | 0.00 | 0.00 | 0.00 | 91 | 1014.9 |
| 20260507031043 | 5 | 0 | 0.0 | 0.0 | 0.00 | 0.00 | 0.00 | 90 | 1015.0 |
| 20260507030541 | 5 | 0 | 0.0 | 0.0 | 0.00 | 0.00 | 0.00 | 90 | 1015.0 |
| 20260507030051 | 5 | 0 | 0.0 | 0.0 | 0.00 | 0.00 | 0.00 | 90 | 1014.9 |
| 20260507025540 | 5 | 0 | 0.0 | 0.0 | 0.00 | 0.00 | 0.00 | 90 | 1015.0 |
| 20260507025041 | 5 | 0 | 0.0 | 1.6 | 0.00 | 0.00 | 0.00 | 90 | 1015.0 |
| 20260507024549 | 5 | 0 | 0.0 | 1.6 | 0.00 | 0.00 | 0.00 | 90 | 1015.0 |
| 20260507024040 | 5 | 0 | 0.0 | 1.6 | 0.00 | 0.00 | 0.00 | 89 | 1014.9 |
| 20260507023540 | 5 | 0 | 0.0 | 3.2 | 0.00 | 0.00 | 0.00 | 89 | 1014.9 |
| 20260507023048 | 5 | 0 | 0.0 | 3.2 | 0.00 | 0.00 | 0.00 | 89 | 1014.8 |
| 20260507022542 | 5 | 0 | 0.0 | 3.2 | 0.00 | 0.00 | 0.00 | 89 | 1014.7 |
| 20260507022042 | 5 | 0 | 0.0 | 1.6 | 0.00 | 0.00 | 0.00 | 89 | 1014.7 |
| 20260507021548 | 6 | 0 | 0.0 | 4.8 | 0.00 | 0.00 | 0.00 | 89 | 1014.6 |
| 20260507021043 | 6 | 0 | 0.0 | 4.8 | 0.00 | 0.00 | 0.00 | 89 | 1014.7 |
| 20260507020541 | 6 | 0 | 0.0 | 4.8 | 0.00 | 0.00 | 0.00 | 89 | 1014.7 |
| 20260507015545 | 6 | 0 | 0.0 | 4.8 | 0.00 | 0.00 | 0.00 | 89 | 1014.7 |
| 20260507015044 | 6 | 314 | 0.0 | 0.0 | 0.00 | 0.00 | 0.00 | 89 | 1014.6 |
| 20260507014548 | 6 | 0 | 0.0 | 1.6 | 0.00 | 0.00 | 0.00 | 89 | 1014.5 |
| 20260507014041 | 6 | 0 | 0.0 | 1.6 | 0.00 | 0.00 | 0.00 | 89 | 1014.6 |
| 20260507013543 | 6 | 0 | 0.0 | 1.6 | 0.00 | 0.00 | 0.00 | 89 | 1014.6 |
| 20260507013047 | 6 | 0 | 0.0 | 1.6 | 0.00 | 0.00 | 0.00 | 88 | 1014.5 |
| 20260507012542 | 6 | 0 | 0.0 | 1.6 | 0.00 | 0.00 | 0.00 | 89 | 1014.6 |
| 20260507012041 | 6 | 0 | 0.0 | 1.6 | 0.00 | 0.00 | 0.00 | 88 | 1014.6 |
| 20260507011550 | 6 | 0 | 0.0 | 1.6 | 0.00 | 0.00 | 0.00 | 88 | 1014.7 |
| 20260507011040 | 6 | 0 | 0.0 | 0.0 | 0.00 | 0.00 | 0.00 | 88 | 1014.7 |
| 20260507010541 | 6 | 0 | 0.0 | 1.6 | 0.00 | 0.00 | 0.00 | 88 | 1014.7 |
| 20260507010100 | 6 | 0 | 0.0 | 3.2 | 0.00 | 0.00 | 0.00 | 88 | 1014.7 |
| 20260507005541 | 6 | 0 | 0.0 | 3.2 | 0.00 | 0.00 | 0.00 | 87 | 1014.7 |
| 20260507005041 | 6 | 0 | 0.0 | 4.8 | 0.00 | 0.00 | 0.00 | 87 | 1014.6 |
| 20260507004545 | 6 | 0 | 0.0 | 4.8 | 0.00 | 0.00 | 0.00 | 87 | 1014.6 |
| 20260507004042 | 6 | 348 | 0.0 | 3.2 | 0.00 | 0.00 | 0.00 | 87 | 1014.7 |
| 20260507003541 | 6 | 0 | 0.0 | 3.2 | 0.00 | 0.00 | 0.00 | 87 | 1014.7 |
| 20260507003052 | 6 | 0 | 0.0 | 1.6 | 0.00 | 0.00 | 0.00 | 86 | 1014.7 |
| 20260507002541 | 6 | 0 | 0.0 | 0.0 | 0.00 | 0.00 | 0.00 | 86 | 1014.9 |
| 20260507002042 | 6 | 0 | 0.0 | 0.0 | 0.00 | 0.00 | 0.00 | 86 | 1014.8 |
| 20260507001555 | 6 | 0 | 0.0 | 0.0 | 0.00 | 0.00 | 0.00 | 86 | 1014.8 |
| 20260507001041 | 6 | 0 | 0.0 | 0.0 | 0.00 | 0.00 | 0.00 | 85 | 1014.8 |
| 20260507000541 | 6 | 0 | 0.0 | 0.0 | 0.00 | 0.00 | 0.00 | 85 | 1014.9 |
| 20260507000052 | 6 | 0 | 0.0 | 0.0 | 0.00 | 0.00 | 0.00 | 85 | 1014.9 |
| 20260506235543 | 7 | 0 | 0.0 | 0.0 | 0.00 | 0.00 | 0.00 | 85 | 1014.9 |
| 20260506235041 | 7 | 0 | 0.0 | 0.0 | 0.00 | 0.00 | 0.00 | 85 | 1014.8 |
| 20260506234558 | 7 | 0 | 0.0 | 0.0 | 0.00 | 0.00 | 0.00 | 84 | 1014.7 |
| 20260506234041 | 7 | 0 | 0.0 | 3.2 | 0.00 | 0.00 | 0.00 | 84 | 1014.7 |
| 20260506233545 | 7 | 0 | 0.0 | 3.2 | 0.00 | 0.00 | 0.00 | 84 | 1014.7 |
| 20260506233052 | 7 | 0 | 0.0 | 3.2 | 0.00 | 0.00 | 0.00 | 84 | 1014.7 |
| 20260506232542 | 7 | 308 | 0.0 | 3.2 | 0.00 | 0.00 | 0.00 | 84 | 1014.6 |
| 20260506232041 | 7 | 0 | 0.0 | 3.2 | 0.00 | 0.00 | 0.00 | 83 | 1014.7 |
| 20260506231606 | 7 | 0 | 0.0 | 3.2 | 0.00 | 0.00 | 0.00 | 83 | 1014.6 |
| 20260506231041 | 7 | 0 | 0.0 | 3.2 | 0.00 | 0.00 | 0.00 | 83 | 1014.6 |
| 20260506230541 | 7 | 0 | 0.0 | 3.2 | 0.00 | 0.00 | 0.00 | 82 | 1014.6 |
| 20260506230109 | 8 | 0 | 0.0 | 4.8 | 0.00 | 0.00 | 0.00 | 82 | 1014.7 |
| 20260506225541 | 8 | 0 | 0.0 | 4.8 | 0.00 | 0.00 | 0.00 | 82 | 1014.6 |
| 20260506225041 | 8 | 328 | 0.0 | 4.8 | 0.00 | 0.00 | 0.00 | 82 | 1014.7 |
| 20260506224553 | 8 | 0 | 0.0 | 4.8 | 0.00 | 0.00 | 0.00 | 81 | 1014.6 |
| 20260506224040 | 8 | 0 | 0.0 | 4.8 | 0.00 | 0.00 | 0.00 | 81 | 1014.6 |
| 20260506223543 | 8 | 0 | 0.0 | 4.8 | 0.00 | 0.00 | 0.00 | 81 | 1014.6 |
| 20260506223054 | 8 | 12 | 0.0 | 3.2 | 0.00 | 0.00 | 0.00 | 81 | 1014.6 |
| 20260506222541 | 8 | 346 | 0.0 | 4.8 | 0.00 | 0.00 | 0.00 | 81 | 1014.7 |
| 20260506222044 | 8 | 0 | 0.0 | 6.4 | 0.00 | 0.00 | 0.00 | 80 | 1014.6 |
| 20260506221609 | 8 | 0 | 0.0 | 8.0 | 0.00 | 0.00 | 0.00 | 80 | 1014.6 |
| 20260506221040 | 8 | 360 | 1.6 | 8.0 | 0.00 | 0.00 | 0.00 | 80 | 1014.6 |
| 20260506220541 | 9 | 331 | 3.2 | 11.3 | 0.00 | 0.00 | 0.00 | 80 | 1014.5 |
| 20260506220105 | 9 | 30 | 3.2 | 11.3 | 0.00 | 0.00 | 0.00 | 79 | 1014.5 |
| 20260506215542 | 9 | 333 | 3.2 | 11.3 | 0.00 | 0.00 | 0.00 | 79 | 1014.6 |
| 20260506215041 | 9 | 9 | 3.2 | 11.3 | 0.00 | 0.00 | 0.00 | 79 | 1014.5 |
| 20260506214551 | 9 | 10 | 4.8 | 12.9 | 0.00 | 0.00 | 0.00 | 79 | 1014.5 |
| 20260506214041 | 9 | 341 | 4.8 | 12.9 | 0.00 | 0.00 | 0.00 | 79 | 1014.5 |
| 20260506213540 | 9 | 338 | 4.8 | 12.9 | 0.00 | 0.00 | 0.00 | 78 | 1014.5 |
| 20260506213105 | 10 | 0 | 3.2 | 12.9 | 0.00 | 0.00 | 0.00 | 78 | 1014.5 |
| 20260506212541 | 10 | 325 | 0.0 | 8.0 | 0.00 | 0.00 | 0.00 | 78 | 1014.5 |
| 20260506212041 | 10 | 34 | 1.6 | 9.7 | 0.00 | 0.00 | 0.00 | 77 | 1014.6 |
| 20260506211553 | 10 | 321 | 1.6 | 12.9 | 0.00 | 0.00 | 0.00 | 77 | 1014.5 |
| 20260506211041 | 10 | 11 | 3.2 | 12.9 | 0.00 | 0.00 | 0.00 | 77 | 1014.5 |
| 20260506210541 | 10 | 12 | 1.6 | 12.9 | 0.00 | 0.00 | 0.00 | 77 | 1014.4 |
| 20260506210055 | 10 | 279 | 3.2 | 12.9 | 0.00 | 0.00 | 0.00 | 76 | 1014.2 |
| 20260506205540 | 10 | 17 | 4.8 | 11.3 | 0.00 | 0.00 | 0.00 | 76 | 1014.3 |
| 20260506205042 | 10 | 355 | 3.2 | 11.3 | 0.00 | 0.00 | 0.00 | 76 | 1014.1 |
| 20260506204554 | 10 | 16 | 4.8 | 12.9 | 0.00 | 0.00 | 0.00 | 75 | 1014.1 |
| 20260506204037 | 10 | 30 | 6.4 | 12.9 | 0.00 | 0.00 | 0.00 | 75 | 1014.1 |
| 20260506203545 | 10 | 350 | 3.2 | 12.9 | 0.00 | 0.00 | 0.00 | 75 | 1014.1 |
| 20260506203045 | 10 | 355 | 3.2 | 12.9 | 0.00 | 0.00 | 0.00 | 75 | 1014.1 |
| 20260506202541 | 10 | 355 | 4.8 | 14.5 | 0.00 | 0.00 | 0.00 | 74 | 1014.1 |
| 20260506202041 | 10 | 335 | 4.8 | 14.5 | 0.00 | 0.00 | 0.00 | 74 | 1014.0 |
| 20260506201550 | 10 | 330 | 4.8 | 14.5 | 0.00 | 0.00 | 0.00 | 73 | 1014.0 |
| 20260506201039 | 10 | 5 | 4.8 | 14.5 | 0.00 | 0.00 | 0.00 | 73 | 1014.0 |
| 20260506200541 | 10 | 338 | 4.8 | 14.5 | 0.00 | 0.00 | 0.00 | 73 | 1014.0 |
| 20260506200052 | 10 | 19 | 6.4 | 14.5 | 0.00 | 0.00 | 0.00 | 72 | 1013.9 |
| 20260506195543 | 10 | 326 | 6.4 | 17.7 | 0.00 | 0.00 | 0.00 | 71 | 1013.8 |
| 20260506195041 | 11 | 344 | 6.4 | 17.7 | 0.00 | 0.00 | 0.00 | 71 | 1013.8 |
| 20260506194550 | 11 | 22 | 4.8 | 14.5 | 0.00 | 0.00 | 0.00 | 71 | 1013.7 |
| 20260506194041 | 11 | 5 | 3.2 | 16.1 | 0.00 | 0.00 | 0.00 | 70 | 1013.6 |
| 20260506193537 | 11 | 355 | 6.4 | 16.1 | 0.00 | 0.00 | 0.00 | 70 | 1013.6 |
| 20260506193051 | 11 | 329 | 1.6 | 14.5 | 0.00 | 0.00 | 0.00 | 69 | 1013.5 |
| 20260506192537 | 11 | 335 | 3.2 | 16.1 | 0.00 | 0.00 | 0.00 | 69 | 1013.5 |
| 20260506192042 | 11 | 0 | 6.4 | 16.1 | 0.00 | 0.00 | 0.00 | 68 | 1013.5 |
| 20260506191556 | 11 | 338 | 3.2 | 14.5 | 0.00 | 0.00 | 0.00 | 68 | 1013.4 |
| 20260506191043 | 11 | 332 | 4.8 | 14.5 | 0.00 | 0.00 | 0.00 | 67 | 1013.3 |
| 20260506190542 | 11 | 360 | 3.2 | 14.5 | 0.00 | 0.00 | 0.00 | 67 | 1013.3 |
| 20260506190101 | 11 | 355 | 4.8 | 11.3 | 0.00 | 0.00 | 0.00 | 66 | 1013.3 |
| 20260506185544 | 11 | 9 | 3.2 | 9.7 | 0.00 | 0.00 | 0.00 | 65 | 1013.2 |
| 20260506185043 | 12 | 355 | 3.2 | 12.9 | 0.00 | 0.00 | 0.00 | 64 | 1013.1 |
| 20260506184625 | 12 | 340 | 3.2 | 12.9 | 0.00 | 0.00 | 0.00 | 64 | 1013.0 |
| 20260506184044 | 12 | 5 | 4.8 | 16.1 | 0.00 | 0.00 | 0.00 | 64 | 1013.0 |
| 20260506183546 | 12 | 0 | 6.4 | 16.1 | 0.00 | 0.00 | 0.00 | 63 | 1013.0 |
| 20260506183104 | 12 | 347 | 4.8 | 14.5 | 0.00 | 0.00 | 0.00 | 63 | 1013.0 |
| 20260506182542 | 12 | 343 | 4.8 | 16.1 | 0.00 | 0.00 | 0.00 | 62 | 1012.9 |
| 20260506182042 | 12 | 38 | 4.8 | 16.1 | 0.00 | 0.00 | 0.00 | 62 | 1013.0 |
| 20260506181550 | 12 | 13 | 6.4 | 16.1 | 0.00 | 0.00 | 0.00 | 62 | 1012.7 |
| 20260506181044 | 12 | 9 | 3.2 | 12.9 | 0.00 | 0.00 | 0.00 | 62 | 1012.8 |
| 20260506180545 | 12 | 338 | 4.8 | 12.9 | 0.00 | 0.00 | 0.00 | 62 | 1012.7 |
| 20260506180059 | 12 | 19 | 4.8 | 12.9 | 0.00 | 0.00 | 0.00 | 62 | 1012.6 |
| 20260506175545 | 12 | 13 | 4.8 | 14.5 | 0.00 | 0.00 | 0.00 | 62 | 1012.5 |
| 20260506175047 | 12 | 336 | 4.8 | 14.5 | 0.00 | 0.00 | 0.00 | 62 | 1012.6 |
| 20260506174556 | 12 | 344 | 3.2 | 16.1 | 0.00 | 0.00 | 0.00 | 64 | 1012.6 |
| 20260506174043 | 12 | 12 | 6.4 | 16.1 | 0.00 | 0.00 | 0.00 | 63 | 1012.4 |
| 20260506173544 | 12 | 360 | 6.4 | 16.1 | 0.00 | 0.00 | 0.00 | 63 | 1012.4 |
| 20260506173052 | 12 | 340 | 4.8 | 16.1 | 0.00 | 0.00 | 0.00 | 64 | 1012.4 |
| 20260506172544 | 12 | 5 | 4.8 | 16.1 | 0.00 | 0.00 | 0.00 | 64 | 1012.3 |
| 20260506172045 | 12 | 18 | 6.4 | 20.9 | 0.00 | 0.00 | 0.00 | 64 | 1012.3 |
| 20260506171608 | 12 | 331 | 4.8 | 20.9 | 0.00 | 0.00 | 0.00 | 64 | 1012.3 |
| 20260506171044 | 12 | 351 | 9.7 | 20.9 | 0.00 | 0.00 | 0.00 | 64 | 1012.4 |
| 20260506170540 | 12 | 355 | 6.4 | 17.7 | 0.00 | 0.00 | 0.00 | 64 | 1012.3 |
| 20260506170057 | 12 | 360 | 4.8 | 14.5 | 0.00 | 0.00 | 0.00 | 64 | 1012.3 |
| 20260506165540 | 12 | 26 | 4.8 | 16.1 | 0.00 | 0.00 | 0.00 | 64 | 1012.3 |
| 20260506165044 | 12 | 306 | 4.8 | 16.1 | 0.00 | 0.00 | 0.00 | 63 | 1012.2 |
| 20260506164551 | 12 | 355 | 6.4 | 19.3 | 0.00 | 0.00 | 0.00 | 64 | 1012.3 |
| 20260506164042 | 12 | 9 | 8.0 | 19.3 | 0.00 | 0.00 | 0.00 | 63 | 1012.3 |
| 20260506163543 | 12 | 349 | 8.0 | 19.3 | 0.00 | 0.00 | 0.00 | 63 | 1012.3 |
| 20260506163106 | 12 | 334 | 4.8 | 16.1 | 0.00 | 0.00 | 0.00 | 62 | 1012.3 |
| 20260506162541 | 13 | 336 | 6.4 | 14.5 | 0.00 | 0.00 | 0.00 | 63 | 1012.4 |
| 20260506162043 | 13 | 355 | 4.8 | 12.9 | 0.00 | 0.00 | 0.00 | 63 | 1012.4 |
| 20260506161550 | 13 | 40 | 6.4 | 16.1 | 0.00 | 0.00 | 0.00 | 63 | 1012.3 |
| 20260506161042 | 13 | 329 | 4.8 | 24.1 | 0.00 | 0.00 | 0.00 | 63 | 1012.3 |
| 20260506160542 | 13 | 339 | 8.0 | 24.1 | 0.00 | 0.00 | 0.00 | 62 | 1012.3 |
| 20260506160101 | 14 | 17 | 4.8 | 20.9 | 0.00 | 0.00 | 0.00 | 62 | 1012.3 |
| 20260506155541 | 14 | 344 | 3.2 | 16.1 | 0.00 | 0.00 | 0.00 | 61 | 1012.3 |
| 20260506155041 | 14 | 340 | 3.2 | 14.5 | 0.00 | 0.00 | 0.00 | 64 | 1012.4 |
| 20260506154554 | 14 | 19 | 3.2 | 16.1 | 0.00 | 0.00 | 0.00 | 64 | 1012.3 |
| 20260506154041 | 13 | 346 | 8.0 | 16.1 | 0.00 | 0.00 | 0.00 | 62 | 1012.4 |
| 20260506153544 | 13 | 352 | 3.2 | 14.5 | 0.00 | 0.00 | 0.00 | 64 | 1012.5 |
| 20260506153051 | 13 | 21 | 6.4 | 16.1 | 0.00 | 0.00 | 0.00 | 63 | 1012.5 |
| 20260506152544 | 13 | 14 | 4.8 | 17.7 | 0.00 | 0.00 | 0.00 | 65 | 1012.6 |
| 20260506152040 | 13 | 13 | 8.0 | 17.7 | 0.00 | 0.00 | 0.00 | 62 | 1012.5 |
| 20260506151550 | 13 | 309 | 6.4 | 16.1 | 0.00 | 0.00 | 0.00 | 64 | 1012.5 |
| 20260506151040 | 13 | 262 | 4.8 | 16.1 | 0.00 | 0.00 | 0.00 | 65 | 1012.5 |
| 20260506150540 | 13 | 301 | 6.4 | 16.1 | 0.00 | 0.00 | 0.00 | 63 | 1012.7 |
| 20260506150055 | 13 | 335 | 4.8 | 20.9 | 0.00 | 0.00 | 0.00 | 63 | 1012.7 |
| 20260506145542 | 13 | 13 | 6.4 | 24.1 | 0.00 | 0.00 | 0.00 | 62 | 1012.7 |
| 20260506145044 | 13 | 30 | 4.8 | 24.1 | 0.00 | 0.00 | 0.00 | 63 | 1012.6 |
| 20260506144600 | 15 | 341 | 8.0 | 22.5 | 0.00 | 0.00 | 0.00 | 61 | 1012.8 |
| 20260506144042 | 15 | 330 | 8.0 | 19.3 | 0.00 | 0.00 | 0.00 | 63 | 1012.7 |
| 20260506143541 | 15 | 323 | 3.2 | 22.5 | 0.00 | 0.00 | 0.00 | 63 | 1012.7 |
| 20260506143050 | 14 | 311 | 6.4 | 22.5 | 0.00 | 0.00 | 0.00 | 65 | 1012.6 |
| 20260506142540 | 14 | 0 | 8.0 | 22.5 | 0.00 | 0.00 | 0.00 | 64 | 1012.6 |
| 20260506142040 | 15 | 340 | 9.7 | 19.3 | 0.00 | 0.00 | 0.00 | 65 | 1012.7 |
| 20260506141550 | 15 | 360 | 6.4 | 19.3 | 0.00 | 0.00 | 0.00 | 64 | 1012.6 |
| 20260506141042 | 15 | 33 | 3.2 | 16.1 | 0.00 | 0.00 | 0.00 | 64 | 1012.7 |
| 20260506140543 | 15 | 312 | 6.4 | 16.1 | 0.00 | 0.00 | 0.00 | 65 | 1012.7 |
| 20260506140052 | 13 | 28 | 8.0 | 24.1 | 0.00 | 0.00 | 0.00 | 66 | 1012.7 |
| 20260506135541 | 13 | 344 | 8.0 | 24.1 | 0.00 | 0.00 | 0.00 | 64 | 1012.7 |
| 20260506135040 | 13 | 309 | 9.7 | 24.1 | 0.00 | 0.00 | 0.00 | 63 | 1012.8 |
| 20260506134551 | 14 | 324 | 4.8 | 19.3 | 0.00 | 0.00 | 0.00 | 66 | 1012.7 |
| 20260506134043 | 14 | 272 | 8.0 | 20.9 | 0.00 | 0.00 | 0.00 | 63 | 1012.8 |
| 20260506133541 | 15 | 355 | 8.0 | 20.9 | 0.00 | 0.00 | 0.00 | 61 | 1012.7 |
| 20260506133053 | 15 | 316 | 6.4 | 22.5 | 0.00 | 0.00 | 0.00 | 65 | 1012.6 |
| 20260506132545 | 14 | 355 | 8.0 | 22.5 | 0.00 | 0.00 | 0.00 | 63 | 1012.8 |
| 20260506132041 | 15 | 336 | 4.8 | 25.7 | 0.00 | 0.00 | 0.00 | 66 | 1012.6 |
| 20260506131557 | 13 | 348 | 3.2 | 25.7 | 0.00 | 0.00 | 0.00 | 68 | 1012.8 |
| 20260506131041 | 13 | 346 | 6.4 | 17.7 | 0.00 | 0.00 | 0.00 | 66 | 1012.7 |
| 20260506130541 | 13 | 337 | 4.8 | 27.4 | 0.00 | 0.00 | 0.00 | 67 | 1012.7 |
| 20260506130057 | 12 | 5 | 6.4 | 27.4 | 0.00 | 0.00 | 0.00 | 65 | 1012.7 |
| 20260506125540 | 13 | 310 | 11.3 | 24.1 | 0.00 | 0.00 | 0.00 | 64 | 1012.8 |
| 20260506125040 | 13 | 346 | 4.8 | 20.9 | 0.00 | 0.00 | 0.00 | 64 | 1012.7 |
| 20260506124550 | 13 | 360 | 9.7 | 20.9 | 0.00 | 0.00 | 0.00 | 62 | 1012.8 |
| 20260506124041 | 15 | 5 | 8.0 | 22.5 | 0.00 | 0.00 | 0.00 | 62 | 1012.7 |
| 20260506123542 | 14 | 313 | 6.4 | 22.5 | 0.00 | 0.00 | 0.00 | 67 | 1012.7 |
| 20260506123052 | 13 | 26 | 8.0 | 22.5 | 0.00 | 0.00 | 0.00 | 63 | 1012.8 |
| 20260506122542 | 13 | 350 | 9.7 | 22.5 | 0.00 | 0.00 | 0.00 | 64 | 1012.7 |
| 20260506122042 | 13 | 19 | 9.7 | 22.5 | 0.00 | 0.00 | 0.00 | 65 | 1012.9 |
| 20260506121550 | 13 | 329 | 8.0 | 20.9 | 0.00 | 0.00 | 0.00 | 63 | 1012.8 |
| 20260506121043 | 14 | 336 | 8.0 | 20.9 | 0.00 | 0.00 | 0.00 | 64 | 1012.8 |
| 20260506120541 | 14 | 16 | 9.7 | 19.3 | 0.00 | 0.00 | 0.00 | 61 | 1012.8 |
| 20260506120050 | 14 | 347 | 8.0 | 19.3 | 0.00 | 0.00 | 0.00 | 64 | 1012.7 |
| 20260506115541 | 14 | 323 | 6.4 | 24.1 | 0.00 | 0.00 | 0.00 | 64 | 1012.8 |
| 20260506115041 | 13 | 355 | 8.0 | 24.1 | 0.00 | 0.00 | 0.00 | 64 | 1012.9 |
| 20260506114554 | 14 | 331 | 12.9 | 22.5 | 0.00 | 0.00 | 0.00 | 62 | 1012.8 |
| 20260506114040 | 14 | 10 | 4.8 | 22.5 | 0.00 | 0.00 | 0.00 | 65 | 1012.9 |
| 20260506113540 | 13 | 317 | 11.3 | 22.5 | 0.00 | 0.00 | 0.00 | 65 | 1012.9 |
| 20260506113049 | 13 | 327 | 9.7 | 20.9 | 0.00 | 0.00 | 0.00 | 64 | 1012.9 |
| 20260506112540 | 14 | 335 | 6.4 | 20.9 | 0.00 | 0.00 | 0.00 | 65 | 1012.9 |
| 20260506112040 | 13 | 333 | 6.4 | 20.9 | 0.00 | 0.00 | 0.00 | 65 | 1013.0 |
| 20260506111550 | 13 | 355 | 11.3 | 20.9 | 0.00 | 0.00 | 0.00 | 65 | 1012.9 |
| 20260506111043 | 13 | 317 | 3.2 | 20.9 | 0.00 | 0.00 | 0.00 | 64 | 1013.0 |
| 20260506110540 | 14 | 309 | 6.4 | 20.9 | 0.00 | 0.00 | 0.00 | 61 | 1012.9 |
| 20260506110048 | 13 | 351 | 9.7 | 22.5 | 0.00 | 0.00 | 0.00 | 63 | 1012.8 |
| 20260506105540 | 13 | 309 | 6.4 | 24.1 | 0.00 | 0.00 | 0.00 | 64 | 1012.9 |
| 20260506105042 | 13 | 291 | 11.3 | 27.4 | 0.00 | 0.00 | 0.00 | 60 | 1012.9 |
| 20260506104546 | 13 | 350 | 12.9 | 27.4 | 0.00 | 0.00 | 0.00 | 61 | 1012.9 |
| 20260506104041 | 13 | 317 | 8.0 | 25.7 | 0.00 | 0.00 | 0.00 | 63 | 1012.9 |
| 20260506103541 | 13 | 355 | 6.4 | 22.5 | 0.00 | 0.00 | 0.00 | 63 | 1012.9 |
| 20260506103052 | 13 | 30 | 9.7 | 25.7 | 0.00 | 0.00 | 0.00 | 62 | 1012.8 |
| 20260506102541 | 13 | 312 | 8.0 | 25.7 | 0.00 | 0.00 | 0.00 | 63 | 1012.9 |
| 20260506102041 | 13 | 32 | 11.3 | 25.7 | 0.00 | 0.00 | 0.00 | 61 | 1012.9 |
| 20260506101550 | 13 | 242 | 9.7 | 24.1 | 0.00 | 0.00 | 0.00 | 62 | 1012.9 |
| 20260506101040 | 12 | 348 | 11.3 | 24.1 | 0.00 | 0.00 | 0.00 | 64 | 1012.9 |
| 20260506100540 | 12 | 350 | 11.3 | 20.9 | 0.00 | 0.00 | 0.00 | 64 | 1013.0 |
| 20260506095541 | 12 | 342 | 4.8 | 20.9 | 0.00 | 0.00 | 0.00 | 65 | 1012.9 |
| 20260506095043 | 13 | 5 | 3.2 | 20.9 | 0.00 | 0.00 | 0.00 | 63 | 1012.9 |
| 20260506094549 | 13 | 344 | 6.4 | 17.7 | 0.00 | 0.00 | 0.00 | 64 | 1013.0 |
| 20260506094041 | 13 | 9 | 4.8 | 19.3 | 0.00 | 0.00 | 0.00 | 63 | 1012.9 |
| 20260506093541 | 12 | 292 | 8.0 | 22.5 | 0.00 | 0.00 | 0.00 | 63 | 1012.9 |
| 20260506093053 | 12 | 335 | 6.4 | 22.5 | 0.00 | 0.00 | 0.00 | 64 | 1012.8 |
| 20260506092541 | 13 | 307 | 8.0 | 22.5 | 0.00 | 0.00 | 0.00 | 64 | 1012.9 |
| 20260506092045 | 13 | 308 | 4.8 | 16.1 | 0.00 | 0.00 | 0.00 | 67 | 1012.8 |
| 20260506091553 | 12 | 355 | 6.4 | 17.7 | 0.00 | 0.00 | 0.00 | 66 | 1012.9 |
| 20260506091041 | 13 | 281 | 1.6 | 17.7 | 0.00 | 0.00 | 0.00 | 69 | 1012.9 |
| 20260506090540 | 12 | 289 | 4.8 | 17.7 | 0.00 | 0.00 | 0.00 | 70 | 1012.8 |
| 20260506090050 | 11 | 325 | 4.8 | 17.7 | 0.00 | 0.00 | 0.00 | 71 | 1012.8 |
| 20260506085540 | 11 | 314 | 3.2 | 16.1 | 0.00 | 0.00 | 0.00 | 71 | 1012.9 |
| 20260506085040 | 11 | 316 | 4.8 | 17.7 | 0.00 | 0.00 | 0.00 | 72 | 1012.8 |
| 20260506084557 | 10 | 0 | 8.0 | 19.3 | 0.00 | 0.00 | 0.00 | 73 | 1012.9 |
| 20260506084041 | 10 | 303 | 4.8 | 22.5 | 0.00 | 0.00 | 0.00 | 73 | 1012.9 |
| 20260506083541 | 10 | 280 | 6.4 | 22.5 | 0.00 | 0.00 | 0.00 | 74 | 1012.8 |
| 20260506083050 | 10 | 20 | 3.2 | 14.5 | 0.00 | 0.00 | 0.00 | 76 | 1012.8 |
| 20260506082542 | 10 | 342 | 4.8 | 14.5 | 0.00 | 0.00 | 0.00 | 76 | 1012.8 |
| 20260506082040 | 10 | 360 | 1.6 | 14.5 | 0.00 | 0.00 | 0.00 | 77 | 1012.9 |
| 20260506081550 | 10 | 346 | 4.8 | 14.5 | 0.00 | 0.00 | 0.00 | 77 | 1012.9 |
| 20260506081041 | 9 | 98 | 3.2 | 14.5 | 0.00 | 0.00 | 0.00 | 77 | 1012.9 |